{"data":{"norad_id":59754,"epoch":"2026-09-21T10:33:20.355552Z","epoch_age_seconds":90006,"freshness":"FRESH","line1":"1 59754U 24091B   26264.43981893 -.00000433  00000+0  12882-5 0  9997","line2":"2 59754  53.1592 321.6177 0001233  68.4418 291.6731 15.69709964136256","mean_motion":15.69709964,"eccentricity":0.0001233,"inclination_deg":53.1592,"raan_deg":321.6177,"arg_perigee_deg":68.4418,"mean_anomaly_deg":291.6731,"bstar":1.2882e-6,"rev_number":13625,"period_min":91.736692320569,"perigee_km":358.89607482487,"apogee_km":360.55763205113,"semimajor_km":6737.863853438,"source":"CELESTRAK","updated_at":"2026-09-22T09:00:49.066817Z"}}